Year,Month,Day,Hour,Minute,Value (Times are PST for insolation in W/m^2)
2016,09,04,00,00,0.00
2016,09,04,00,01,0.00
2016,09,04,00,02,0.00
2016,09,04,00,03,0.00
2016,09,04,00,04,0.00
2016,09,04,00,05,0.00
2016,09,04,00,06,0.00
2016,09,04,00,07,0.00
2016,09,04,00,08,0.00
2016,09,04,00,09,0.00
2016,09,04,00,10,0.00
2016,09,04,00,11,0.00
2016,09,04,00,12,0.00
2016,09,04,00,13,0.00
2016,09,04,00,14,0.00
2016,09,04,00,15,0.00
2016,09,04,00,16,0.00
2016,09,04,00,17,0.00
2016,09,04,00,18,0.00
2016,09,04,00,19,0.00
2016,09,04,00,20,0.00
2016,09,04,00,21,0.00
2016,09,04,00,22,0.00
2016,09,04,00,23,0.00
2016,09,04,00,24,0.00
2016,09,04,00,25,0.00
2016,09,04,00,26,0.00
2016,09,04,00,27,0.00
2016,09,04,00,28,0.00
2016,09,04,00,29,0.00
2016,09,04,00,30,0.00
2016,09,04,00,31,0.00
2016,09,04,00,32,0.00
2016,09,04,00,33,0.00
2016,09,04,00,34,0.00
2016,09,04,00,35,0.00
2016,09,04,00,36,0.00
2016,09,04,00,37,0.00
2016,09,04,00,38,0.00
2016,09,04,00,39,0.00
2016,09,04,00,40,0.00
2016,09,04,00,41,0.00
2016,09,04,00,42,0.00
2016,09,04,00,43,0.00
2016,09,04,00,44,0.00
2016,09,04,00,45,0.00
2016,09,04,00,46,0.00
2016,09,04,00,47,0.00
2016,09,04,00,48,0.00
2016,09,04,00,49,0.00
2016,09,04,00,50,0.00
2016,09,04,00,51,0.00
2016,09,04,00,52,0.00
2016,09,04,00,53,0.00
2016,09,04,00,54,0.00
2016,09,04,00,55,0.00
2016,09,04,00,56,0.00
2016,09,04,00,57,0.00
2016,09,04,00,58,0.00
2016,09,04,00,59,0.00
2016,09,04,01,00,0.00
2016,09,04,01,01,0.00
2016,09,04,01,02,0.00
2016,09,04,01,03,0.00
2016,09,04,01,04,0.00
2016,09,04,01,05,0.00
2016,09,04,01,06,0.00
2016,09,04,01,07,0.00
2016,09,04,01,08,0.00
2016,09,04,01,09,0.00
2016,09,04,01,10,0.00
2016,09,04,01,11,0.00
2016,09,04,01,12,0.00
2016,09,04,01,13,0.00
2016,09,04,01,14,0.00
2016,09,04,01,15,0.00
2016,09,04,01,16,0.00
2016,09,04,01,17,0.00
2016,09,04,01,18,0.00
2016,09,04,01,19,0.00
2016,09,04,01,20,0.00
2016,09,04,01,21,0.00
2016,09,04,01,22,0.00
2016,09,04,01,23,0.00
2016,09,04,01,24,0.00
2016,09,04,01,25,0.00
2016,09,04,01,26,0.00
2016,09,04,01,27,0.00
2016,09,04,01,28,0.00
2016,09,04,01,29,0.00
2016,09,04,01,30,0.00
2016,09,04,01,31,0.00
2016,09,04,01,32,0.00
2016,09,04,01,33,0.00
2016,09,04,01,34,0.00
2016,09,04,01,35,0.00
2016,09,04,01,36,0.00
2016,09,04,01,37,0.00
2016,09,04,01,38,0.00
2016,09,04,01,39,0.00
2016,09,04,01,40,0.00
2016,09,04,01,41,0.00
2016,09,04,01,42,0.00
2016,09,04,01,43,0.00
2016,09,04,01,44,0.00
2016,09,04,01,45,0.00
2016,09,04,01,46,0.00
2016,09,04,01,47,0.00
2016,09,04,01,48,0.00
2016,09,04,01,49,0.00
2016,09,04,01,50,0.00
2016,09,04,01,51,0.00
2016,09,04,01,52,0.00
2016,09,04,01,53,0.00
2016,09,04,01,54,0.00
2016,09,04,01,55,0.00
2016,09,04,01,56,0.00
2016,09,04,01,57,0.00
2016,09,04,01,58,0.00
2016,09,04,01,59,0.00
2016,09,04,02,00,0.00
2016,09,04,02,01,0.00
2016,09,04,02,02,0.00
2016,09,04,02,03,0.00
2016,09,04,02,04,0.00
2016,09,04,02,05,0.00
2016,09,04,02,06,0.00
2016,09,04,02,07,0.00
2016,09,04,02,08,0.00
2016,09,04,02,09,0.00
2016,09,04,02,10,0.00
2016,09,04,02,11,0.00
2016,09,04,02,12,0.00
2016,09,04,02,13,0.00
2016,09,04,02,14,0.00
2016,09,04,02,15,0.00
2016,09,04,02,16,0.00
2016,09,04,02,17,0.00
2016,09,04,02,18,0.00
2016,09,04,02,19,0.00
2016,09,04,02,20,0.00
2016,09,04,02,21,0.00
2016,09,04,02,22,0.00
2016,09,04,02,23,0.00
2016,09,04,02,24,0.00
2016,09,04,02,25,0.00
2016,09,04,02,26,0.00
2016,09,04,02,27,0.00
2016,09,04,02,28,0.00
2016,09,04,02,29,0.00
2016,09,04,02,30,0.00
2016,09,04,02,31,0.00
2016,09,04,02,32,0.00
2016,09,04,02,33,0.00
2016,09,04,02,34,0.00
2016,09,04,02,35,0.00
2016,09,04,02,36,0.00
2016,09,04,02,37,0.00
2016,09,04,02,38,0.00
2016,09,04,02,39,0.00
2016,09,04,02,40,0.00
2016,09,04,02,41,0.00
2016,09,04,02,42,0.00
2016,09,04,02,43,0.00
2016,09,04,02,44,0.00
2016,09,04,02,45,0.00
2016,09,04,02,46,0.00
2016,09,04,02,47,0.00
2016,09,04,02,48,0.00
2016,09,04,02,49,0.00
2016,09,04,02,50,0.00
2016,09,04,02,51,0.00
2016,09,04,02,52,0.00
2016,09,04,02,53,0.00
2016,09,04,02,54,0.00
2016,09,04,02,55,0.00
2016,09,04,02,56,0.00
2016,09,04,02,57,0.00
2016,09,04,02,58,0.00
2016,09,04,02,59,0.00
2016,09,04,03,00,0.00
2016,09,04,03,01,0.00
2016,09,04,03,02,0.00
2016,09,04,03,03,0.00
2016,09,04,03,04,0.00
2016,09,04,03,05,0.00
2016,09,04,03,06,0.00
2016,09,04,03,07,0.00
2016,09,04,03,08,0.00
2016,09,04,03,09,0.00
2016,09,04,03,10,0.00
2016,09,04,03,11,0.00
2016,09,04,03,12,0.00
2016,09,04,03,13,0.00
2016,09,04,03,14,0.00
2016,09,04,03,15,0.00
2016,09,04,03,16,0.00
2016,09,04,03,17,0.00
2016,09,04,03,18,0.00
2016,09,04,03,19,0.00
2016,09,04,03,20,0.00
2016,09,04,03,21,0.00
2016,09,04,03,22,0.00
2016,09,04,03,23,0.00
2016,09,04,03,24,0.00
2016,09,04,03,25,0.00
2016,09,04,03,26,0.00
2016,09,04,03,27,0.00
2016,09,04,03,28,0.00
2016,09,04,03,29,0.00
2016,09,04,03,30,0.00
2016,09,04,03,31,0.00
2016,09,04,03,32,0.00
2016,09,04,03,33,0.00
2016,09,04,03,34,0.00
2016,09,04,03,35,0.00
2016,09,04,03,36,0.00
2016,09,04,03,37,0.00
2016,09,04,03,38,0.00
2016,09,04,03,39,0.00
2016,09,04,03,40,0.00
2016,09,04,03,41,0.00
2016,09,04,03,42,0.00
2016,09,04,03,43,0.00
2016,09,04,03,44,0.00
2016,09,04,03,45,0.00
2016,09,04,03,46,0.00
2016,09,04,03,47,0.00
2016,09,04,03,48,0.00
2016,09,04,03,49,0.00
2016,09,04,03,50,0.00
2016,09,04,03,51,0.00
2016,09,04,03,52,0.00
2016,09,04,03,53,0.00
2016,09,04,03,54,0.00
2016,09,04,03,55,0.00
2016,09,04,03,56,0.00
2016,09,04,03,57,0.00
2016,09,04,03,58,0.00
2016,09,04,03,59,0.00
2016,09,04,04,00,0.00
2016,09,04,04,01,0.00
2016,09,04,04,02,0.00
2016,09,04,04,03,0.00
2016,09,04,04,04,0.00
2016,09,04,04,05,0.00
2016,09,04,04,06,0.00
2016,09,04,04,07,0.00
2016,09,04,04,08,0.00
2016,09,04,04,09,0.00
2016,09,04,04,10,0.00
2016,09,04,04,11,0.00
2016,09,04,04,12,0.00
2016,09,04,04,13,0.00
2016,09,04,04,14,0.00
2016,09,04,04,15,0.00
2016,09,04,04,16,0.00
2016,09,04,04,17,0.00
2016,09,04,04,18,0.00
2016,09,04,04,19,0.00
2016,09,04,04,20,0.00
2016,09,04,04,21,0.00
2016,09,04,04,22,0.00
2016,09,04,04,23,0.00
2016,09,04,04,24,0.00
2016,09,04,04,25,0.00
2016,09,04,04,26,0.00
2016,09,04,04,27,0.00
2016,09,04,04,28,0.00
2016,09,04,04,29,0.00
2016,09,04,04,30,0.00
2016,09,04,04,31,0.00
2016,09,04,04,32,0.00
2016,09,04,04,33,0.00
2016,09,04,04,34,0.00
2016,09,04,04,35,0.00
2016,09,04,04,36,0.00
2016,09,04,04,37,0.00
2016,09,04,04,38,0.00
2016,09,04,04,39,0.00
2016,09,04,04,40,0.00
2016,09,04,04,41,0.00
2016,09,04,04,42,0.00
2016,09,04,04,43,0.00
2016,09,04,04,44,0.00
2016,09,04,04,45,0.00
2016,09,04,04,46,0.00
2016,09,04,04,47,0.00
2016,09,04,04,48,0.00
2016,09,04,04,49,0.00
2016,09,04,04,50,0.00
2016,09,04,04,51,0.00
2016,09,04,04,52,0.00
2016,09,04,04,53,0.00
2016,09,04,04,54,0.00
2016,09,04,04,55,0.00
2016,09,04,04,56,0.00
2016,09,04,04,57,0.00
2016,09,04,04,58,0.00
2016,09,04,04,59,0.00
2016,09,04,05,00,0.00
2016,09,04,05,01,0.00
2016,09,04,05,02,0.00
2016,09,04,05,03,0.00
2016,09,04,05,04,0.00
2016,09,04,05,05,0.00
2016,09,04,05,06,0.00
2016,09,04,05,07,0.00
2016,09,04,05,08,0.00
2016,09,04,05,09,0.00
2016,09,04,05,10,0.00
2016,09,04,05,11,0.00
2016,09,04,05,12,0.00
2016,09,04,05,13,0.00
2016,09,04,05,14,0.00
2016,09,04,05,15,0.00
2016,09,04,05,16,0.00
2016,09,04,05,17,0.00
2016,09,04,05,18,0.00
2016,09,04,05,19,0.00
2016,09,04,05,20,0.00
2016,09,04,05,21,0.00
2016,09,04,05,22,0.00
2016,09,04,05,23,0.00
2016,09,04,05,24,0.00
2016,09,04,05,25,0.00
2016,09,04,05,26,0.00
2016,09,04,05,27,0.00
2016,09,04,05,28,0.00
2016,09,04,05,29,0.00
2016,09,04,05,30,0.00
2016,09,04,05,31,0.00
2016,09,04,05,32,0.00
2016,09,04,05,33,0.00
2016,09,04,05,34,0.00
2016,09,04,05,35,0.00
2016,09,04,05,36,0.00
2016,09,04,05,37,0.00
2016,09,04,05,38,0.00
2016,09,04,05,39,0.00
2016,09,04,05,40,0.00
2016,09,04,05,41,0.00
2016,09,04,05,42,0.00
2016,09,04,05,43,0.00
2016,09,04,05,44,0.00
2016,09,04,05,45,0.00
2016,09,04,05,46,0.00
2016,09,04,05,47,0.00
2016,09,04,05,48,0.00
2016,09,04,05,49,0.00
2016,09,04,05,50,0.00
2016,09,04,05,51,0.00
2016,09,04,05,52,0.00
2016,09,04,05,53,0.00
2016,09,04,05,54,0.00
2016,09,04,05,55,0.00
2016,09,04,05,56,0.00
2016,09,04,05,57,0.00
2016,09,04,05,58,0.00
2016,09,04,05,59,0.00
2016,09,04,06,00,0.00
2016,09,04,06,01,0.00
2016,09,04,06,02,0.00
2016,09,04,06,03,0.00
2016,09,04,06,04,0.00
2016,09,04,06,05,0.00
2016,09,04,06,06,0.00
2016,09,04,06,07,0.00
2016,09,04,06,08,0.00
2016,09,04,06,09,0.00
2016,09,04,06,10,0.00
2016,09,04,06,11,0.00
2016,09,04,06,12,0.00
2016,09,04,06,13,0.00
2016,09,04,06,14,0.00
2016,09,04,06,15,0.00
2016,09,04,06,16,0.00
2016,09,04,06,17,0.00
2016,09,04,06,18,0.00
2016,09,04,06,19,0.00
2016,09,04,06,20,0.00
2016,09,04,06,21,0.00
2016,09,04,06,22,0.00
2016,09,04,06,23,0.00
2016,09,04,06,24,0.00
2016,09,04,06,25,0.00
2016,09,04,06,26,0.00
2016,09,04,06,27,0.00
2016,09,04,06,28,0.00
2016,09,04,06,29,0.00
2016,09,04,06,30,0.00
2016,09,04,06,31,0.00
2016,09,04,06,32,0.00
2016,09,04,06,33,0.00
2016,09,04,06,34,0.00
2016,09,04,06,35,0.00
2016,09,04,06,36,0.00
2016,09,04,06,37,0.00
2016,09,04,06,38,0.00
2016,09,04,06,39,0.00
2016,09,04,06,40,0.00
2016,09,04,06,41,0.00
2016,09,04,06,42,0.00
2016,09,04,06,43,0.00
2016,09,04,06,44,0.00
2016,09,04,06,45,0.00
2016,09,04,06,46,0.00
2016,09,04,06,47,0.00
2016,09,04,06,48,0.80
2016,09,04,06,49,5.00
2016,09,04,06,50,5.00
2016,09,04,06,51,5.00
2016,09,04,06,52,5.00
2016,09,04,06,53,5.00
2016,09,04,06,54,5.00
2016,09,04,06,55,5.60
2016,09,04,06,56,7.00
2016,09,04,06,57,7.00
2016,09,04,06,58,7.00
2016,09,04,06,59,7.00
2016,09,04,07,00,7.00
2016,09,04,07,01,7.00
2016,09,04,07,02,7.00
2016,09,04,07,03,8.30
2016,09,04,07,04,9.00
2016,09,04,07,05,9.00
2016,09,04,07,06,9.00
2016,09,04,07,07,9.00
2016,09,04,07,08,9.00
2016,09,04,07,09,9.00
2016,09,04,07,10,9.00
2016,09,04,07,11,9.00
2016,09,04,07,12,9.50
2016,09,04,07,13,11.00
2016,09,04,07,14,11.00
2016,09,04,07,15,11.00
2016,09,04,07,16,11.00
2016,09,04,07,17,11.00
2016,09,04,07,18,11.00
2016,09,04,07,19,11.00
2016,09,04,07,20,11.00
2016,09,04,07,21,11.00
2016,09,04,07,22,11.90
2016,09,04,07,23,12.00
2016,09,04,07,24,12.00
2016,09,04,07,25,12.00
2016,09,04,07,26,12.00
2016,09,04,07,27,12.00
2016,09,04,07,28,12.00
2016,09,04,07,29,12.00
2016,09,04,07,30,12.00
2016,09,04,07,31,12.00
2016,09,04,07,32,12.00
2016,09,04,07,33,12.00
2016,09,04,07,34,12.00
2016,09,04,07,35,12.00
2016,09,04,07,36,12.00
2016,09,04,07,37,12.00
2016,09,04,07,38,13.30
2016,09,04,07,39,14.00
2016,09,04,07,40,14.00
2016,09,04,07,41,14.00
2016,09,04,07,42,14.00
2016,09,04,07,43,14.00
2016,09,04,07,44,14.00
2016,09,04,07,45,14.00
2016,09,04,07,46,14.00
2016,09,04,07,47,14.00
2016,09,04,07,48,14.00
2016,09,04,07,49,14.00
2016,09,04,07,50,15.30
2016,09,04,07,51,16.00
2016,09,04,07,52,16.00
2016,09,04,07,53,16.00
2016,09,04,07,54,16.00
2016,09,04,07,55,16.00
2016,09,04,07,56,16.00
2016,09,04,07,57,16.00
2016,09,04,07,58,16.00
2016,09,04,07,59,16.00
2016,09,04,08,00,16.00
2016,09,04,08,01,16.00
2016,09,04,08,02,16.00
2016,09,04,08,03,16.00
2016,09,04,08,04,18.00
2016,09,04,08,05,18.00
2016,09,04,08,06,18.00
2016,09,04,08,07,18.00
2016,09,04,08,08,18.00
2016,09,04,08,09,18.00
2016,09,04,08,10,18.00
2016,09,04,08,11,18.00
2016,09,04,08,12,18.00
2016,09,04,08,13,18.00
2016,09,04,08,14,18.00
2016,09,04,08,15,18.00
2016,09,04,08,16,18.00
2016,09,04,08,17,18.00
2016,09,04,08,18,18.00
2016,09,04,08,19,18.70
2016,09,04,08,20,19.00
2016,09,04,08,21,19.00
2016,09,04,08,22,19.00
2016,09,04,08,23,19.00
2016,09,04,08,24,19.00
2016,09,04,08,25,19.00
2016,09,04,08,26,19.00
2016,09,04,08,27,19.00
2016,09,04,08,28,19.00
2016,09,04,08,29,19.00
2016,09,04,08,30,20.10
2016,09,04,08,31,21.00
2016,09,04,08,32,21.00
2016,09,04,08,33,21.00
2016,09,04,08,34,21.00
2016,09,04,08,35,21.00
2016,09,04,08,36,21.00
2016,09,04,08,37,21.00
2016,09,04,08,38,21.00
2016,09,04,08,39,21.00
2016,09,04,08,40,21.00
2016,09,04,08,41,21.00
2016,09,04,08,42,21.00
2016,09,04,08,43,21.00
2016,09,04,08,44,21.00
2016,09,04,08,45,21.00
2016,09,04,08,46,21.60
2016,09,04,08,47,23.00
2016,09,04,08,48,23.00
2016,09,04,08,49,23.00
2016,09,04,08,50,23.00
2016,09,04,08,51,23.00
2016,09,04,08,52,23.00
2016,09,04,08,53,23.90
2016,09,04,08,54,25.00
2016,09,04,08,55,25.00
2016,09,04,08,56,25.00
2016,09,04,08,57,25.00
2016,09,04,08,58,25.00
2016,09,04,08,59,25.00
2016,09,04,09,00,25.00
2016,09,04,09,01,25.00
2016,09,04,09,02,25.00
2016,09,04,09,03,26.00
2016,09,04,09,04,26.00
2016,09,04,09,05,26.00
2016,09,04,09,06,26.00
2016,09,04,09,07,26.00
2016,09,04,09,08,26.00
2016,09,04,09,09,26.00
2016,09,04,09,10,26.00
2016,09,04,09,11,26.00
2016,09,04,09,12,27.30
2016,09,04,09,13,28.00
2016,09,04,09,14,28.00
2016,09,04,09,15,28.00
2016,09,04,09,16,28.00
2016,09,04,09,17,28.00
2016,09,04,09,18,28.00
2016,09,04,09,19,29.60
2016,09,04,09,20,30.00
2016,09,04,09,21,30.00
2016,09,04,09,22,30.00
2016,09,04,09,23,28.80
2016,09,04,09,24,28.00
2016,09,04,09,25,28.00
2016,09,04,09,26,28.00
2016,09,04,09,27,28.60
2016,09,04,09,28,30.00
2016,09,04,09,29,30.00
2016,09,04,09,30,30.00
2016,09,04,09,31,30.00
2016,09,04,09,32,30.00
2016,09,04,09,33,30.00
2016,09,04,09,34,30.00
2016,09,04,09,35,30.00
2016,09,04,09,36,30.00
2016,09,04,09,37,30.00
2016,09,04,09,38,30.00
2016,09,04,09,39,29.30
2016,09,04,09,40,28.00
2016,09,04,09,41,28.00
2016,09,04,09,42,28.00
2016,09,04,09,43,28.00
2016,09,04,09,44,28.00
2016,09,04,09,45,28.00
2016,09,04,09,46,28.00
2016,09,04,09,47,28.00
2016,09,04,09,48,28.00
2016,09,04,09,49,28.00
2016,09,04,09,50,28.50
2016,09,04,09,51,30.00
2016,09,04,09,52,30.00
2016,09,04,09,53,30.00
2016,09,04,09,54,30.00
2016,09,04,09,55,30.00
2016,09,04,09,56,30.00
2016,09,04,09,57,30.00
2016,09,04,09,58,30.00
2016,09,04,09,59,30.00
2016,09,04,10,00,30.00
2016,09,04,10,01,30.00
2016,09,04,10,02,30.50
2016,09,04,10,03,32.00
2016,09,04,10,04,32.00
2016,09,04,10,05,34.00
2016,09,04,10,06,36.70
2016,09,04,10,07,61.90
2016,09,04,10,08,138.30
2016,09,04,10,09,202.00
2016,09,04,10,10,323.70
2016,09,04,10,11,428.00
2016,09,04,10,12,435.60
2016,09,04,10,13,438.20
2016,09,04,10,14,439.00
2016,09,04,10,15,440.00
2016,09,04,10,16,441.00
2016,09,04,10,17,442.50
2016,09,04,10,18,445.00
2016,09,04,10,19,448.40
2016,09,04,10,20,450.70
2016,09,04,10,21,440.10
2016,09,04,10,22,424.00
2016,09,04,10,23,429.00
2016,09,04,10,24,426.90
2016,09,04,10,25,421.00
2016,09,04,10,26,438.60
2016,09,04,10,27,467.50
2016,09,04,10,28,471.70
2016,09,04,10,29,475.60
2016,09,04,10,30,478.10
2016,09,04,10,31,480.70
2016,09,04,10,32,483.80
2016,09,04,10,33,486.10
2016,09,04,10,34,488.30
2016,09,04,10,35,489.80
2016,09,04,10,36,491.90
2016,09,04,10,37,492.60
2016,09,04,10,38,491.30
2016,09,04,10,39,481.30
2016,09,04,10,40,470.30
2016,09,04,10,41,468.00
2016,09,04,10,42,482.80
2016,09,04,10,43,494.00
2016,09,04,10,44,503.70
2016,09,04,10,45,506.80
2016,09,04,10,46,504.60
2016,09,04,10,47,509.20
2016,09,04,10,48,512.20
2016,09,04,10,49,513.60
2016,09,04,10,50,515.90
2016,09,04,10,51,518.20
2016,09,04,10,52,519.00
2016,09,04,10,53,520.00
2016,09,04,10,54,522.60
2016,09,04,10,55,526.30
2016,09,04,10,56,527.00
2016,09,04,10,57,527.00
2016,09,04,10,58,531.40
2016,09,04,10,59,531.30
2016,09,04,11,00,534.00
2016,09,04,11,01,536.00
2016,09,04,11,02,542.60
2016,09,04,11,03,549.50
2016,09,04,11,04,555.90
2016,09,04,11,05,563.70
2016,09,04,11,06,562.30
2016,09,04,11,07,539.20
2016,09,04,11,08,540.50
2016,09,04,11,09,560.70
2016,09,04,11,10,576.40
2016,09,04,11,11,582.60
2016,09,04,11,12,579.00
2016,09,04,11,13,590.00
2016,09,04,11,14,578.30
2016,09,04,11,15,584.90
2016,09,04,11,16,583.30
2016,09,04,11,17,542.30
2016,09,04,11,18,555.90
2016,09,04,11,19,549.70
2016,09,04,11,20,590.70
2016,09,04,11,21,604.70
2016,09,04,11,22,621.10
2016,09,04,11,23,616.50
2016,09,04,11,24,636.00
2016,09,04,11,25,584.30
2016,09,04,11,26,494.80
2016,09,04,11,27,480.00
2016,09,04,11,28,631.70
2016,09,04,11,29,661.00
2016,09,04,11,30,660.40
2016,09,04,11,31,662.90
2016,09,04,11,32,663.50
2016,09,04,11,33,663.20
2016,09,04,11,34,661.20
2016,09,04,11,35,639.90
2016,09,04,11,36,574.50
2016,09,04,11,37,629.90
2016,09,04,11,38,664.30
2016,09,04,11,39,657.30
2016,09,04,11,40,669.20
2016,09,04,11,41,656.60
2016,09,04,11,42,610.90
2016,09,04,11,43,603.80
2016,09,04,11,44,619.10
2016,09,04,11,45,661.40
2016,09,04,11,46,677.40
2016,09,04,11,47,680.90
2016,09,04,11,48,682.60
2016,09,04,11,49,684.90
2016,09,04,11,50,690.30
2016,09,04,11,51,687.90
2016,09,04,11,52,690.20
2016,09,04,11,53,685.70
2016,09,04,11,54,691.00
2016,09,04,11,55,687.30
2016,09,04,11,56,681.20
2016,09,04,11,57,672.60
2016,09,04,11,58,693.70
2016,09,04,11,59,698.00
2016,09,04,12,00,696.00
2016,09,04,12,01,697.60
2016,09,04,12,02,700.30
2016,09,04,12,03,700.00
2016,09,04,12,04,700.50
2016,09,04,12,05,698.50
2016,09,04,12,06,698.40
2016,09,04,12,07,691.90
2016,09,04,12,08,690.40
2016,09,04,12,09,689.40
2016,09,04,12,10,691.80
2016,09,04,12,11,695.10
2016,09,04,12,12,692.10
2016,09,04,12,13,689.80
2016,09,04,12,14,681.60
2016,09,04,12,15,688.00
2016,09,04,12,16,697.70
2016,09,04,12,17,696.00
2016,09,04,12,18,698.40
2016,09,04,12,19,704.70
2016,09,04,12,20,707.00
2016,09,04,12,21,711.60
2016,09,04,12,22,712.00
2016,09,04,12,23,711.20
2016,09,04,12,24,713.30
2016,09,04,12,25,717.00
2016,09,04,12,26,715.40
2016,09,04,12,27,716.70
2016,09,04,12,28,715.40
2016,09,04,12,29,717.00
2016,09,04,12,30,717.00
2016,09,04,12,31,715.70
2016,09,04,12,32,720.80
2016,09,04,12,33,722.00
2016,09,04,12,34,723.00
2016,09,04,12,35,725.20
2016,09,04,12,36,725.00
2016,09,04,12,37,724.60
2016,09,04,12,38,725.70
2016,09,04,12,39,728.00
2016,09,04,12,40,728.00
2016,09,04,12,41,728.00
2016,09,04,12,42,726.80
2016,09,04,12,43,728.00
2016,09,04,12,44,729.00
2016,09,04,12,45,728.90
2016,09,04,12,46,728.00
2016,09,04,12,47,729.30
2016,09,04,12,48,731.00
2016,09,04,12,49,731.00
2016,09,04,12,50,732.70
2016,09,04,12,51,735.00
2016,09,04,12,52,734.40
2016,09,04,12,53,732.10
2016,09,04,12,54,734.70
2016,09,04,12,55,737.00
2016,09,04,12,56,737.00
2016,09,04,12,57,738.80
2016,09,04,12,58,741.40
2016,09,04,12,59,740.00
2016,09,04,13,00,738.80
2016,09,04,13,01,740.90
2016,09,04,13,02,742.20
2016,09,04,13,03,746.40
2016,09,04,13,04,745.00
2016,09,04,13,05,747.00
2016,09,04,13,06,745.70
2016,09,04,13,07,745.00
2016,09,04,13,08,746.90
2016,09,04,13,09,747.00
2016,09,04,13,10,747.00
2016,09,04,13,11,749.20
2016,09,04,13,12,751.70
2016,09,04,13,13,752.00
2016,09,04,13,14,753.90
2016,09,04,13,15,754.00
2016,09,04,13,16,754.80
2016,09,04,13,17,757.00
2016,09,04,13,18,758.70
2016,09,04,13,19,759.00
2016,09,04,13,20,763.20
2016,09,04,13,21,766.00
2016,09,04,13,22,766.80
2016,09,04,13,23,769.00
2016,09,04,13,24,771.40
2016,09,04,13,25,776.10
2016,09,04,13,26,779.10
2016,09,04,13,27,780.00
2016,09,04,13,28,780.00
2016,09,04,13,29,782.40
2016,09,04,13,30,784.00
2016,09,04,13,31,782.20
2016,09,04,13,32,785.70
2016,09,04,13,33,784.00
2016,09,04,13,34,784.00
2016,09,04,13,35,784.00
2016,09,04,13,36,782.50
2016,09,04,13,37,782.20
2016,09,04,13,38,785.60
2016,09,04,13,39,784.00
2016,09,04,13,40,782.10
2016,09,04,13,41,776.80
2016,09,04,13,42,769.30
2016,09,04,13,43,766.10
2016,09,04,13,44,765.00
2016,09,04,13,45,765.30
2016,09,04,13,46,767.90
2016,09,04,13,47,772.00
2016,09,04,13,48,773.00
2016,09,04,13,49,772.90
2016,09,04,13,50,771.20
2016,09,04,13,51,766.00
2016,09,04,13,52,760.80
2016,09,04,13,53,758.30
2016,09,04,13,54,754.70
2016,09,04,13,55,755.90
2016,09,04,13,56,755.50
2016,09,04,13,57,754.00
2016,09,04,13,58,754.00
2016,09,04,13,59,756.80
2016,09,04,14,00,758.80
2016,09,04,14,01,758.30
2016,09,04,14,02,672.40
2016,09,04,14,03,624.00
2016,09,04,14,04,572.50
2016,09,04,14,05,531.10
2016,09,04,14,06,495.20
2016,09,04,14,07,483.60
2016,09,04,14,08,461.70
2016,09,04,14,09,481.10
2016,09,04,14,10,508.00
2016,09,04,14,11,674.50
2016,09,04,14,12,735.20
2016,09,04,14,13,732.40
2016,09,04,14,14,728.20
2016,09,04,14,15,725.10
2016,09,04,14,16,724.00
2016,09,04,14,17,724.00
2016,09,04,14,18,709.70
2016,09,04,14,19,397.90
2016,09,04,14,20,407.60
2016,09,04,14,21,411.90
2016,09,04,14,22,420.20
2016,09,04,14,23,430.20
2016,09,04,14,24,421.50
2016,09,04,14,25,425.00
2016,09,04,14,26,550.30
2016,09,04,14,27,750.70
2016,09,04,14,28,747.00
2016,09,04,14,29,735.70
2016,09,04,14,30,733.00
2016,09,04,14,31,737.80
2016,09,04,14,32,759.10
2016,09,04,14,33,763.30
2016,09,04,14,34,733.80
2016,09,04,14,35,722.00
2016,09,04,14,36,371.20
2016,09,04,14,37,350.00
2016,09,04,14,38,510.40
2016,09,04,14,39,748.80
2016,09,04,14,40,737.50
2016,09,04,14,41,721.50
2016,09,04,14,42,718.50
2016,09,04,14,43,700.80
2016,09,04,14,44,713.80
2016,09,04,14,45,713.00
2016,09,04,14,46,723.70
2016,09,04,14,47,724.70
2016,09,04,14,48,724.00
2016,09,04,14,49,724.00
2016,09,04,14,50,721.90
2016,09,04,14,51,716.20
2016,09,04,14,52,708.80
2016,09,04,14,53,701.60
2016,09,04,14,54,698.00
2016,09,04,14,55,698.00
2016,09,04,14,56,696.30
2016,09,04,14,57,693.40
2016,09,04,14,58,690.10
2016,09,04,14,59,687.20
2016,09,04,15,00,686.00
2016,09,04,15,01,686.40
2016,09,04,15,02,687.00
2016,09,04,15,03,687.00
2016,09,04,15,04,687.00
2016,09,04,15,05,687.20
2016,09,04,15,06,691.00
2016,09,04,15,07,692.10
2016,09,04,15,08,694.00
2016,09,04,15,09,695.30
2016,09,04,15,10,699.00
2016,09,04,15,11,701.10
2016,09,04,15,12,703.40
2016,09,04,15,13,707.30
2016,09,04,15,14,718.70
2016,09,04,15,15,728.00
2016,09,04,15,16,732.10
2016,09,04,15,17,735.20
2016,09,04,15,18,739.80
2016,09,04,15,19,745.80
2016,09,04,15,20,740.50
2016,09,04,15,21,758.30
2016,09,04,15,22,770.00
2016,09,04,15,23,333.80
2016,09,04,15,24,313.00
2016,09,04,15,25,405.00
2016,09,04,15,26,487.60
2016,09,04,15,27,445.00
2016,09,04,15,28,445.00
2016,09,04,15,29,445.00
2016,09,04,15,30,369.90
2016,09,04,15,31,209.00
2016,09,04,15,32,503.30
2016,09,04,15,33,724.00
2016,09,04,15,34,724.00
2016,09,04,15,35,724.00
2016,09,04,15,36,724.00
2016,09,04,15,37,707.70
2016,09,04,15,38,681.10
2016,09,04,15,39,678.50
2016,09,04,15,40,678.40
2016,09,04,15,41,663.80
2016,09,04,15,42,652.50
2016,09,04,15,43,646.40
2016,09,04,15,44,641.20
2016,09,04,15,45,640.00
2016,09,04,15,46,643.00
2016,09,04,15,47,649.20
2016,09,04,15,48,650.80
2016,09,04,15,49,654.40
2016,09,04,15,50,656.30
2016,09,04,15,51,658.30
2016,09,04,15,52,665.40
2016,09,04,15,53,666.00
2016,09,04,15,54,665.30
2016,09,04,15,55,661.10
2016,09,04,15,56,654.40
2016,09,04,15,57,659.40
2016,09,04,15,58,627.30
2016,09,04,15,59,274.00
2016,09,04,16,00,227.90
2016,09,04,16,01,153.00
2016,09,04,16,02,424.60
2016,09,04,16,03,523.40
2016,09,04,16,04,442.50
2016,09,04,16,05,439.00
2016,09,04,16,06,361.70
2016,09,04,16,07,250.00
2016,09,04,16,08,495.60
2016,09,04,16,09,603.00
2016,09,04,16,10,341.00
2016,09,04,16,11,299.00
2016,09,04,16,12,209.00
2016,09,04,16,13,209.00
2016,09,04,16,14,219.30
2016,09,04,16,15,223.00
2016,09,04,16,16,208.10
2016,09,04,16,17,117.50
2016,09,04,16,18,125.00
2016,09,04,16,19,125.00
2016,09,04,16,20,155.90
2016,09,04,16,21,165.00
2016,09,04,16,22,210.50
2016,09,04,16,23,415.00
2016,09,04,16,24,474.60
2016,09,04,16,25,552.10
2016,09,04,16,26,555.50
2016,09,04,16,27,492.30
2016,09,04,16,28,489.00
2016,09,04,16,29,366.10
2016,09,04,16,30,151.00
2016,09,04,16,31,151.00
2016,09,04,16,32,411.70
2016,09,04,16,33,484.90
2016,09,04,16,34,504.00
2016,09,04,16,35,486.20
2016,09,04,16,36,465.00
2016,09,04,16,37,487.40
2016,09,04,16,38,487.10
2016,09,04,16,39,496.00
2016,09,04,16,40,472.30
2016,09,04,16,41,469.80
2016,09,04,16,42,478.20
2016,09,04,16,43,488.60
2016,09,04,16,44,471.30
2016,09,04,16,45,489.20
2016,09,04,16,46,488.70
2016,09,04,16,47,484.70
2016,09,04,16,48,486.60
2016,09,04,16,49,487.20
2016,09,04,16,50,485.50
2016,09,04,16,51,455.00
2016,09,04,16,52,468.00
2016,09,04,16,53,461.50
2016,09,04,16,54,487.20
2016,09,04,16,55,443.00
2016,09,04,16,56,471.70
2016,09,04,16,57,490.40
2016,09,04,16,58,493.00
2016,09,04,16,59,466.20
2016,09,04,17,00,460.20
2016,09,04,17,01,478.50
2016,09,04,17,02,476.30
2016,09,04,17,03,483.80
2016,09,04,17,04,492.00
2016,09,04,17,05,494.50
2016,09,04,17,06,490.90
2016,09,04,17,07,457.30
2016,09,04,17,08,439.00
2016,09,04,17,09,426.10
2016,09,04,17,10,428.00
2016,09,04,17,11,417.60
2016,09,04,17,12,437.00
2016,09,04,17,13,380.30
2016,09,04,17,14,389.20
2016,09,04,17,15,407.20
2016,09,04,17,16,391.60
2016,09,04,17,17,380.30
2016,09,04,17,18,379.10
2016,09,04,17,19,369.90